Tracking 28790 objects as of 19-Apr-2024
HD Live streaming from Space Station
objects crossing your sky now

RADUGA 12

Track RADUGA 12 now!
RADUGA 12 is classified as:


NORAD ID: 13974
Int'l Code: 1983-028A
Perigee: 35,789.5 km
Apogee: 35,807.0 km
Inclination: 9.8 °
Period: 1,436.3 minutes
Semi major axis: 42169 km
RCS: 0.1428 m2 (medium)
Launch date: April 8, 1983
Source: Commonwealth of Independent States (former USSR) (CIS)
Launch site: TYURATAM MISSILE AND SPACE COMPLEX (TTMTR)
Your satellite tracking list
Your tracking list is empty




NASA's NSSDC Master Catalog

Two Line Element Set (TLE):
1 13974U 83028A   24109.61937410 -.00000046  00000-0  00000-0 0  9993
2 13974   9.8329 312.2838 0002072 104.8971  81.0103  1.00255640161469
Source of the keplerian elements: AFSPC